Cloud_Cover
0 0 0 0 0 0 0 0 0 0 0 1 46 95 4 100 100 100 100 1 16 71 4 56 68 42 3 0 0 0 1 0 0 0 0 0 6 88 20 99 21 100 95 100
0 0 0 0 0 0 0 0 0 0 0 0 14 32 29 100 100 100 93 79 3 83 42 0 0 87 20 0 0 0 0 0 0 0 0 0 11 0 0 77 64 0 34 99
0 0 0 0 0 0 0 0 0 0 0 0 2 62 95 100 100 100 81 4 0 56 29 0 0 3 4 0 0 0 0 0 0 0 0 0 0 11 84 14 0 0 0 42
0 0 0 0 0 0 0 0 0 0 0 0 0 1 0 100 100 100 100 3 3 6 0 10 0 0 0 0 0 0 0 0 0 0 0 0 0 54 2 1 59 0 1 0
0 0 0 0 0 0 0 0 0 0 0 0 0 0 0 2 100 86 100 85 4 0 0 0 0 0 0 0 0 0 0 0 0 0 0 0 0 2 100 7 65 0 0 2
0 0 0 0 0 0 0 0 0 0 0 0 0 0 0 1 0 96 100 100 37 13 0 0 0 0 0 0 0 0 0 0 0 0 0 0 0 0 26 5 100 0 0 0
0 0 0 1 0 0 0 0 0 0 0 0 0 0 0 0 5 39 100 100 79 1 0 0 0 0 0 0 0 0 0 0 0 0 0 0 0 0 0 0 59 0 0 0
0 0 0 0 0 0 0 0 0 0 0 0 0 0 0 0 0 41 100 98 100 93 0 0 0 0 0 0 0 0 0 0 0 0 1 0 0 0 0 0 0 7 0 0
0 0 4 0 0 0 0 21 0 1 0 0 0 0 0 0 0 1 64 6 99 100 8 0 0 0 0 0 0 0 0 0 0 0 0 0 0 0 0 0 0 0 0 43
0 0 0 0 1 2 2 0 33 2 4 3 0 0 0 0 0 0 8 35 4 100 100 29 0 0 0 0 0 0 0 0 0 0 0 0 0 0 0 0 0 0 0 6
0 0 0 0 2 3 4 0 12 100 70 1 3 0 0 0 0 0 0 0 3 29 100 75 2 9 0 0 0 0 0 0 0 0 0 0 0 1 0 0 0 0 0 0
80 3 0 0 0 9 5 5 0 99 39 44 0 15 39 24 11 0 0 0 4 94 100 74 91 60 61 0 0 0 0 0 0 0 0 0 0 0 0 0 0 0 1 1
88 22 10 0 0 0 0 0 0 3 19 96 17 0 0 93 100 40 3 0 0 30 75 100 100 100 100 19 0 0 0 4 0 0 0 0 0 0 0 0 0 0 0 0
8 6 44 65 18 36 67 3 4 1 3 28 26 25 99 99 100 100 56 26 0 0 81 100 100 100 99 1 0 0 0 5 0 5 4 0 0 0 0 0 0 0 0 0
100 98 7 5 5 100 6 2 2 3 2 3 66 76 100 97 80 70 100 75 0 0 9 2 72 100 100 97 0 0 0 5 0 0 5 1 0 0 0 0 0 0 0 0
49 5 41 85 5 98 47 2 0 0 2 5 6 88 95 89 84 45 23 14 70 0 56 95 100 98 97 74 4 0 0 2 0 0 5 5 0 0 0 2 0 0 0 0
99 74 65 47 100 47 100 25 4 0 0 0 2 0 100 100 100 100 100 21 3 5 5 5 5 58 86 78 51 6 0 5 0 0 0 3 0 2 11 17 21 10 6 2
98 100 100 100 100 100 0 72 5 2 0 0 0 0 96 100 56 94 100 8 69 31 2 0 0 5 5 41 90 60 3 5 2 0 0 0 4 3 7 21 29 5 8 5
77 100 100 100 100 74 97 94 100 99 69 15 0 0 0 99 95 96 54 100 98 48 5 0 0 5 3 2 2 35 0 2 3 0 0 0 0 1 5 0 1 0 0 1
100 99 97 100 100 100 94 100 64 22 3 2 0 0 0 3 100 8 100 100 12 5 0 0 0 0 0 0 0 0 0 0 5 4 0 0 0 0 0 0 0 0 0 0
100 100 71 98 100 99 98 88 96 87 6 5 0 0 0 13 2 100 100 73 5 4 0 0 0 0 7 69 0 0 0 5 55 5 0 0 0 0 0 0 0 0 0 0
100 100 100 79 100 73 90 60 59 88 9 3 0 0 0 9 0 45 20 0 17 3 0 0 2 4 0 0 0 2 0 93 99 5 2 0 0 0 2 0 0 0 0 0
100 100 100 100 99 95 20 15 5 52 44 0 0 0 1 1 83 65 59 3 2 5 0 0 0 0 0 0 14 2 15 32 85 5 0 4 0 0 12 0 0 0 0 0
100 100 100 100 100 97 90 5 1 8 16 0 0 0 9 19 52 65 18 52 14 0 10 6 4 6 4 1 16 0 94 100 17 5 2 4 0 6 0 0 0 0 0 0
100 100 100 100 100 100 99 71 100 19 60 12 31 0 99 100 100 49 30 0 0 30 35 66 38 50 33 50 70 23 8 99 91 43 3 5 4 5 2 2 0 0 0 0
100 100 100 100 100 100 100 100 100 100 100 52 5 26 100 93 100 95 75 28 98 95 100 100 94 82 37 91 100 98 5 46 45 52 93 53 5 56 16 4 43 91 6 12